<?xml version="1.0"?>
<gpx xmlns="http://www.topografix.com/GPX/1/1" xmlns:xsi="http://www.w3.org/2001/XMLSchema-instance" version="1.1" creator="GPX RubyGem 1.0.0 -- http://dougfales.github.io/gpx/" xsi:schemaLocation="http://www.topografix.com/GPX/1/1 http://www.topografix.com/GPX/1/1/gpx.xsd">
  <metadata>
    <name/>
    <time>2026-05-08T13:44:01+00:00</time>
    <bound minlat="90.0" minlon="180.0" maxlat="-90.0" maxlon="-180.0"/>
  </metadata>
  <trk>
    <name/>
    <trkseg>
      <trkpt lat="45.256778" lon="9.141074">
        <time>1970-01-01T00:00:00+00:00</time>
        <ele>88.0</ele>
      </trkpt>
      <trkpt lat="45.2568" lon="9.141241">
        <time>1970-01-01T00:00:00+00:00</time>
        <ele>88.0</ele>
      </trkpt>
      <trkpt lat="45.256833" lon="9.141498">
        <time>1970-01-01T00:00:00+00:00</time>
        <ele>88.0</ele>
      </trkpt>
      <trkpt lat="45.256859" lon="9.141502">
        <time>1970-01-01T00:00:00+00:00</time>
        <ele>88.0</ele>
      </trkpt>
      <trkpt lat="45.256946" lon="9.141478">
        <time>1970-01-01T00:00:00+00:00</time>
        <ele>88.0</ele>
      </trkpt>
      <trkpt lat="45.256996" lon="9.141735">
        <time>1970-01-01T00:00:00+00:00</time>
        <ele>88.0</ele>
      </trkpt>
      <trkpt lat="45.258795" lon="9.141256">
        <time>1970-01-01T00:00:00+00:00</time>
        <ele>89.0</ele>
      </trkpt>
      <trkpt lat="45.259782" lon="9.141018">
        <time>1970-01-01T00:00:00+00:00</time>
        <ele>89.0</ele>
      </trkpt>
      <trkpt lat="45.260936" lon="9.14074">
        <time>1970-01-01T00:00:00+00:00</time>
        <ele>89.0</ele>
      </trkpt>
      <trkpt lat="45.260991" lon="9.14073">
        <time>1970-01-01T00:00:00+00:00</time>
        <ele>89.0</ele>
      </trkpt>
      <trkpt lat="45.26104" lon="9.140722">
        <time>1970-01-01T00:00:00+00:00</time>
        <ele>89.0</ele>
      </trkpt>
      <trkpt lat="45.261058" lon="9.141167">
        <time>1970-01-01T00:00:00+00:00</time>
        <ele>89.0</ele>
      </trkpt>
      <trkpt lat="45.261142" lon="9.141824">
        <time>1970-01-01T00:00:00+00:00</time>
        <ele>89.0</ele>
      </trkpt>
      <trkpt lat="45.261174" lon="9.142025">
        <time>1970-01-01T00:00:00+00:00</time>
        <ele>89.0</ele>
      </trkpt>
      <trkpt lat="45.261237" lon="9.142056">
        <time>1970-01-01T00:00:00+00:00</time>
        <ele>89.0</ele>
      </trkpt>
      <trkpt lat="45.261407" lon="9.14208">
        <time>1970-01-01T00:00:00+00:00</time>
        <ele>89.0</ele>
      </trkpt>
      <trkpt lat="45.261857" lon="9.142001">
        <time>1970-01-01T00:00:00+00:00</time>
        <ele>89.0</ele>
      </trkpt>
      <trkpt lat="45.262026" lon="9.141946">
        <time>1970-01-01T00:00:00+00:00</time>
        <ele>89.0</ele>
      </trkpt>
      <trkpt lat="45.26223" lon="9.141992">
        <time>1970-01-01T00:00:00+00:00</time>
        <ele>89.0</ele>
      </trkpt>
      <trkpt lat="45.262444" lon="9.141925">
        <time>1970-01-01T00:00:00+00:00</time>
        <ele>89.0</ele>
      </trkpt>
      <trkpt lat="45.262899" lon="9.141881">
        <time>1970-01-01T00:00:00+00:00</time>
        <ele>89.0</ele>
      </trkpt>
      <trkpt lat="45.262998" lon="9.141846">
        <time>1970-01-01T00:00:00+00:00</time>
        <ele>89.0</ele>
      </trkpt>
      <trkpt lat="45.262998" lon="9.141846">
        <time>1970-01-01T00:00:00+00:00</time>
        <ele>89.0</ele>
      </trkpt>
      <trkpt lat="45.262899" lon="9.141881">
        <time>1970-01-01T00:00:00+00:00</time>
        <ele>89.0</ele>
      </trkpt>
      <trkpt lat="45.262444" lon="9.141925">
        <time>1970-01-01T00:00:00+00:00</time>
        <ele>89.0</ele>
      </trkpt>
      <trkpt lat="45.26223" lon="9.141992">
        <time>1970-01-01T00:00:00+00:00</time>
        <ele>89.0</ele>
      </trkpt>
      <trkpt lat="45.262026" lon="9.141946">
        <time>1970-01-01T00:00:00+00:00</time>
        <ele>89.0</ele>
      </trkpt>
      <trkpt lat="45.261857" lon="9.142001">
        <time>1970-01-01T00:00:00+00:00</time>
        <ele>89.0</ele>
      </trkpt>
      <trkpt lat="45.261407" lon="9.14208">
        <time>1970-01-01T00:00:00+00:00</time>
        <ele>89.0</ele>
      </trkpt>
      <trkpt lat="45.261237" lon="9.142056">
        <time>1970-01-01T00:00:00+00:00</time>
        <ele>89.0</ele>
      </trkpt>
      <trkpt lat="45.261174" lon="9.142025">
        <time>1970-01-01T00:00:00+00:00</time>
        <ele>89.0</ele>
      </trkpt>
      <trkpt lat="45.261142" lon="9.141824">
        <time>1970-01-01T00:00:00+00:00</time>
        <ele>89.0</ele>
      </trkpt>
      <trkpt lat="45.261058" lon="9.141167">
        <time>1970-01-01T00:00:00+00:00</time>
        <ele>89.0</ele>
      </trkpt>
      <trkpt lat="45.26104" lon="9.140722">
        <time>1970-01-01T00:00:00+00:00</time>
        <ele>89.0</ele>
      </trkpt>
      <trkpt lat="45.260991" lon="9.14073">
        <time>1970-01-01T00:00:00+00:00</time>
        <ele>89.0</ele>
      </trkpt>
      <trkpt lat="45.260936" lon="9.14074">
        <time>1970-01-01T00:00:00+00:00</time>
        <ele>89.0</ele>
      </trkpt>
      <trkpt lat="45.259782" lon="9.141018">
        <time>1970-01-01T00:00:00+00:00</time>
        <ele>89.0</ele>
      </trkpt>
      <trkpt lat="45.258795" lon="9.141256">
        <time>1970-01-01T00:00:00+00:00</time>
        <ele>89.0</ele>
      </trkpt>
      <trkpt lat="45.256996" lon="9.141735">
        <time>1970-01-01T00:00:00+00:00</time>
        <ele>88.0</ele>
      </trkpt>
      <trkpt lat="45.256946" lon="9.141478">
        <time>1970-01-01T00:00:00+00:00</time>
        <ele>88.0</ele>
      </trkpt>
      <trkpt lat="45.256859" lon="9.141502">
        <time>1970-01-01T00:00:00+00:00</time>
        <ele>88.0</ele>
      </trkpt>
      <trkpt lat="45.256833" lon="9.141498">
        <time>1970-01-01T00:00:00+00:00</time>
        <ele>88.0</ele>
      </trkpt>
      <trkpt lat="45.2568" lon="9.141241">
        <time>1970-01-01T00:00:00+00:00</time>
        <ele>88.0</ele>
      </trkpt>
      <trkpt lat="45.256778" lon="9.141074">
        <time>1970-01-01T00:00:00+00:00</time>
        <ele>88.0</ele>
      </trkpt>
    </trkseg>
  </trk>
</gpx>
